Regional Weather Roundup
Issued by NWS Kansas City/Pleasant Hill, MO

Home | Current Version | Previous Version | Graphics & Text | Print | Product List | Glossary Off
Versions: 1 2 3 4 5 6 7 8 9 10 11 12 13 14 15 16 17 18 19 20 21 22 23 24 25 26 27 28 29 30 31 32 33 34 35 36 37 38 39 40 41 42 43 44 45 46 47 48 49 50

000
ASUS43 KEAX 300910
RWREAX

WEATHER ROUNDUP FOR EASTERN KANSAS AND NORTHWEST MISSOURI
NATIONAL WEATHER SERVICE KANSAS CITY/PLEASANT HILL MO
400 AM CDT SAT AUG 30 2014

KSZ040-057-103>105-MOZ028-029-037-043-301000-
...KANSAS CITY METROPOLITAN AREA...

CITY           SKY/WX    TMP DP  RH WIND       PRES   REMARKS
K.C. INTL      CLEAR     67  65  93 S7        29.88R
K.C. DOWNTOWN  CLEAR     72  69  90 CALM      29.87R
LEES SUMMIT    CLEAR     72  66  81 S10       29.89S
OLATHE - IXD   CLEAR     69  66  90 S7        29.90R
OLATHE - OJC   CLEAR     69  66  90 S6        29.89R
LAWRENCE       CLEAR     70  65  84 W6        29.88R

$$

MOZ001>008-011>017-020>025-030>033-038>040-044>046-053-054-301000-
...NORTHERN AND CENTRAL MISSOURI...

CITY           SKY/WX    TMP DP  RH WIND       PRES   REMARKS
ST. JOSEPH     CLEAR     66  64  93 CALM      29.87R
MOSBY          SUNNY     70  68  94 CALM      29.87R
WHITEMAN AFB   PTCLDY    71  67  89 S8        29.89S
CLINTON        MOCLDY    73  70  88 S7        29.91S
SEDALIA        MOCLDY    74  67  78 S9        29.91S
WARSAW         NOT AVBL
MARSHALL       MOCLDY    72  70  94 CALM      29.91R
CHILLICOTHE      N/A     69  66  90 CALM      29.88R
MOBERLY        MOCLDY    70  64  83 S8        29.89F
KIRKSVILLE     CLOUDY    68  66  93 SW6       29.87R

$$

MOZ041-047>049-056>058-063>065-088>090-097-301000-
...EASTERN AND SOUTHERN MISSOURI...

CITY           SKY/WX    TMP DP  RH WIND       PRES   REMARKS
ST. LOUIS INTL CLOUDY    77  67  71 SW9       29.93S
SPIRIT OF STL  CLOUDY    74  68  81 SW5       29.91S
COLUMBIA       RAIN      72  69  90 SW5       29.92R FOG
JEFFERSON CITY RAIN      73  69  87 S6        29.91S
HANNIBAL       LGT RAIN  72  68  88 SW7       29.89F
ROLLA          PTCLDY    69  66  90 S8        29.94S
LEBANON        PTCLDY    70  66  88 S7        29.96S
OSAGE BEACH    MOCLDY    70  66  88 S5        29.93F
SPRINGFIELD    MOCLDY    71  67  87 S7        29.95S
BRANSON        PTCLDY    70  68  94 CALM      29.97F
NEVADA         PTCLDY    72  68  88 S8        29.92S
JOPLIN         MOCLDY    75  69  81 S10       29.93F
WEST PLAINS    CLOUDY    71  68  90 SW5       29.99S

$$

IAZ060-094-KSZ022-034>040-054-083-096-NEZ052-066-093-301000-
...KANSAS...SOUTHEAST NEBRASKA AND IOWA...

CITY           SKY/WX    TMP DP  RH WIND       PRES   REMARKS
TOPEKA         CLEAR     71  69  93 SW3       29.88S
MANHATTAN      CLEAR     67  65  93 CALM      29.90R
EMPORIA        CLEAR     68  66  93 CALM      29.91R
CHANUTE        CLEAR     72  69  90 S9        29.91F
WICHITA        CLEAR     67  65  93 W6        29.92R
OMAHA          CLEAR     65  62  90 NW6       29.87R
LINCOLN        PTCLDY    67  63  87 NW6       29.91R
FALLS CITY     CLEAR     66  65  96 NW3       29.87S
LAMONI         CLEAR     66  65  96 SW6       29.87R
DES MOINES     CLOUDY    67  65  93 SW3       29.82R

$$




USA.gov is the U.S. government's official web portal to all federal, state and local government web resources and services.